CW3776 Weather Reports


time (UTC)temp
C
wind
direction
speed
KPH
gust
KPH
rain 1hr
cm
rain 24hr
cm
rain mn
cm
humidity
%
barometer
mb
20260506045104 13 141 0.0 0.0 0.00 0.00 0.00 88 1017.9
20260506044604 13 141 0.0 0.0 0.00 0.00 0.00 87 1017.8
20260506044105 13 141 0.0 0.0 0.00 0.00 0.00 87 1017.8
20260506043605 13 141 0.0 0.0 0.00 0.00 0.00 87 1017.9
20260506043104 14 141 0.0 0.0 0.00 0.00 0.00 87 1017.9
20260506042605 14 141 0.0 0.0 0.00 0.00 0.00 87 1017.7
20260506042105 14 141 0.0 0.0 0.00 0.00 0.00 86 1017.9
20260506041106 14 141 0.0 0.0 0.00 0.00 0.00 87 1017.9
20260506040604 15 141 0.0 0.0 0.00 0.00 0.00 86 1017.9
20260506035604 15 141 0.0 0.0 0.00 0.00 0.00 86 1018.0
20260506035104 15 141 0.0 0.0 0.00 0.00 0.00 86 1018.1
20260506034605 15 141 0.0 0.0 0.00 0.00 0.00 86 1018.2
20260506034104 15 141 0.0 0.0 0.00 0.00 0.00 85 1018.1
20260506033604 15 141 0.0 0.0 0.00 0.00 0.00 85 1018.2
20260506033104 15 141 0.0 0.0 0.00 0.00 0.00 85 1018.3
20260506032604 15 141 0.0 0.0 0.00 0.00 0.00 84 1018.4
20260506031604 16 141 0.0 0.0 0.00 0.00 0.00 85 1018.4
20260506031104 16 141 0.0 0.0 0.00 0.00 0.00 85 1018.4
20260506030604 16 141 0.0 0.0 0.00 0.00 0.00 85 1018.4
20260506030104 16 141 0.0 0.0 0.00 0.00 0.00 84 1018.4
20260506025605 16 141 0.0 0.0 0.00 0.00 0.00 82 1018.2
20260506025105 16 141 0.0 0.0 0.00 0.00 0.00 82 1018.1
20260506024604 17 141 0.0 0.0 0.00 0.00 0.00 81 1018.1
20260506024105 17 141 0.0 0.0 0.00 0.00 0.00 81 1018.2
20260506023605 17 141 0.0 0.0 0.00 0.00 0.00 81 1018.2
20260506023105 17 141 0.0 1.6 0.00 0.00 0.00 80 1018.3
20260506021624 18 141 0.0 4.8 0.00 0.00 0.00 80 1018.3
20260506021104 18 141 1.6 3.2 0.00 0.00 0.00 79 1018.2
20260506020604 18 141 3.2 8.0 0.00 0.00 0.00 79 1018.2
20260506020104 18 167 3.2 4.8 0.00 0.00 0.00 79 1018.2
20260506015605 18 165 3.2 4.8 0.00 0.00 0.00 78 1018.1
20260506015105 18 132 1.6 8.0 0.00 0.00 0.00 78 1018.2
20260506014605 18 179 4.8 8.0 0.00 0.00 0.00 78 1018.1
20260506014104 18 158 3.2 8.0 0.00 0.00 0.00 78 1017.9
20260506013605 18 151 4.8 11.3 0.00 0.00 0.00 77 1017.9
20260506013105 19 165 4.8 8.0 0.00 0.00 0.00 77 1017.9
20260506012604 19 155 4.8 9.7 0.00 0.00 0.00 77 1017.9
20260506011604 19 168 6.4 11.3 0.00 0.00 0.00 76 1017.7
20260506011105 19 168 8.0 12.9 0.00 0.00 0.00 76 1017.7
20260506010104 20 169 6.4 9.7 0.00 0.00 0.00 75 1017.8
20260506005104 20 168 8.0 14.5 0.00 0.00 0.00 74 1017.6
20260506004604 20 157 8.0 11.3 0.00 0.00 0.00 74 1017.6
20260506004105 20 168 8.0 12.9 0.00 0.00 0.00 73 1017.6
20260506003605 20 156 8.0 11.3 0.00 0.00 0.00 73 1017.6
20260506003104 20 161 8.0 12.9 0.00 0.00 0.00 72 1017.6
20260506002605 20 159 9.7 14.5 0.00 0.00 0.00 72 1017.5
20260506002104 20 164 8.0 12.9 0.00 0.00 0.00 72 1017.6
20260506001623 20 156 11.3 19.3 0.00 0.00 0.00 71 1017.6
20260505235105 21 163 9.7 19.3 0.00 0.00 0.00 67 1017.5
20260505234604 21 175 8.0 14.5 0.00 0.00 0.00 66 1017.5
20260505234104 21 161 11.3 19.3 0.00 0.00 0.00 66 1017.5
20260505233604 21 157 9.7 32.2 0.00 0.00 0.00 65 1017.5
20260505233105 21 169 9.7 19.3 0.00 0.00 0.00 64 1017.4
20260505232604 21 158 11.3 19.3 0.00 0.00 0.00 64 1017.5
20260505231604 22 151 8.0 14.5 0.00 0.00 0.00 64 1017.4
20260505231104 22 171 9.7 14.5 0.00 0.00 0.00 64 1017.5
20260505230604 22 160 11.3 19.3 0.00 0.00 0.00 63 1017.4
20260505230105 22 169 11.3 22.5 0.00 0.00 0.00 63 1017.4
20260505225605 22 186 11.3 20.9 0.00 0.00 0.00 62 1017.4
20260505225105 22 180 11.3 24.1 0.00 0.00 0.00 62 1017.4
20260505224604 22 178 9.7 19.3 0.00 0.00 0.00 62 1017.5
20260505224105 22 138 9.7 22.5 0.00 0.00 0.00 61 1017.5
20260505223605 22 156 9.7 19.3 0.00 0.00 0.00 62 1017.5
20260505223105 22 173 4.8 16.1 0.00 0.00 0.00 61 1017.6
20260505222605 22 165 11.3 19.3 0.00 0.00 0.00 60 1017.5
20260505222105 22 181 9.7 20.9 0.00 0.00 0.00 60 1017.4
20260505221605 23 183 9.7 19.3 0.00 0.00 0.00 62 1017.5
20260505221104 23 161 11.3 24.1 0.00 0.00 0.00 60 1017.5
20260505220605 23 162 14.5 20.9 0.00 0.00 0.00 59 1017.5
20260505220105 23 178 9.7 19.3 0.00 0.00 0.00 58 1017.4
20260505215105 23 176 9.7 19.3 0.00 0.00 0.00 58 1017.5
20260505214605 24 167 9.7 19.3 0.00 0.00 0.00 56 1017.5
20260505213605 24 165 9.7 19.3 0.00 0.00 0.00 56 1017.4
20260505213105 24 163 14.5 25.7 0.00 0.00 0.00 56 1017.5
20260505212604 24 169 8.0 20.9 0.00 0.00 0.00 55 1017.5
20260505212105 24 180 9.7 25.7 0.00 0.00 0.00 54 1017.5
20260505211105 25 174 9.7 19.3 0.00 0.00 0.00 54 1017.6
20260505210604 25 183 9.7 25.7 0.00 0.00 0.00 55 1017.6
20260505210105 25 172 11.3 25.7 0.00 0.00 0.00 54 1017.6
20260505205604 25 175 8.0 16.1 0.00 0.00 0.00 54 1017.5
20260505205105 25 162 16.1 24.1 0.00 0.00 0.00 53 1017.5
20260505204104 25 201 9.7 22.5 0.00 0.00 0.00 55 1017.6
20260505203604 25 180 17.7 32.2 0.00 0.00 0.00 53 1017.6
20260505203104 25 149 11.3 32.2 0.00 0.00 0.00 53 1017.6
20260505202604 25 157 14.5 27.4 0.00 0.00 0.00 52 1017.6
20260505202105 25 172 16.1 33.8 0.00 0.00 0.00 52 1017.5
20260505201605 25 162 12.9 20.9 0.00 0.00 0.00 52 1017.4
20260505201105 25 173 16.1 27.4 0.00 0.00 0.00 52 1017.5
20260505200105 26 151 8.0 25.7 0.00 0.00 0.00 52 1017.6
20260505195604 26 163 11.3 22.5 0.00 0.00 0.00 52 1017.7
20260505195104 26 184 14.5 27.4 0.00 0.00 0.00 50 1017.6
20260505194604 26 163 11.3 24.1 0.00 0.00 0.00 50 1017.6
20260505193604 25 162 11.3 24.1 0.00 0.00 0.00 52 1017.9
20260505193104 25 163 14.5 24.1 0.00 0.00 0.00 51 1018.0
20260505192605 26 163 14.5 29.0 0.00 0.00 0.00 49 1018.0
20260505192105 26 180 8.0 22.5 0.00 0.00 0.00 52 1018.0
20260505191104 25 164 17.7 27.4 0.00 0.00 0.00 50 1018.4
20260505190605 26 168 14.5 27.4 0.00 0.00 0.00 48 1018.4
20260505190105 26 164 14.5 24.1 0.00 0.00 0.00 48 1018.4
20260505185605 26 162 16.1 32.2 0.00 0.00 0.00 52 1018.3
20260505185104 26 154 14.5 20.9 0.00 0.00 0.00 51 1018.4
20260505184604 26 174 16.1 27.4 0.00 0.00 0.00 50 1018.5
20260505184104 26 166 14.5 25.7 0.00 0.00 0.00 51 1018.4
20260505183104 25 148 16.1 22.5 0.00 0.00 0.00 51 1018.4
20260505182604 25 119 11.3 25.7 0.00 0.00 0.00 50 1018.3
20260505182105 26 189 14.5 22.5 0.00 0.00 0.00 50 1018.4
20260505181604 25 154 14.5 25.7 0.00 0.00 0.00 51 1018.3
20260505181105 26 149 12.9 25.7 0.00 0.00 0.00 50 1018.4
20260505180605 26 146 14.5 27.4 0.00 0.00 0.00 49 1018.5
20260505180104 26 170 8.0 19.3 0.00 0.00 0.00 51 1018.5
20260505175104 26 164 14.5 27.4 0.00 0.00 0.00 51 1018.6
20260505174605 26 155 19.3 32.2 0.00 0.00 0.00 51 1018.6
20260505174104 26 173 14.5 25.7 0.00 0.00 0.00 50 1018.7
20260505173604 26 169 8.0 25.7 0.00 0.00 0.00 52 1018.7
20260505172104 26 135 12.9 20.9 0.00 0.00 0.00 51 1018.8
20260505171605 26 134 12.9 22.5 0.00 0.00 0.00 50 1018.9
20260505170605 26 162 8.0 24.1 0.00 0.00 0.00 51 1018.9
20260505165605 26 194 12.9 24.1 0.00 0.00 0.00 51 1019.0
20260505165104 26 165 11.3 20.9 0.00 0.00 0.00 49 1019.0
20260505164604 26 168 9.7 19.3 0.00 0.00 0.00 51 1019.1
20260505164105 26 121 8.0 19.3 0.00 0.00 0.00 51 1019.0
20260505162605 26 154 11.3 22.5 0.00 0.00 0.00 49 1019.2
20260505162104 26 150 12.9 24.1 0.00 0.00 0.00 50 1019.2
20260505161604 26 216 3.2 9.7 0.00 0.00 0.00 53 1019.3
20260505161104 25 168 4.8 16.1 0.00 0.00 0.00 55 1019.3
20260505160605 25 166 11.3 22.5 0.00 0.00 0.00 53 1019.4
20260505160105 25 164 11.3 19.3 0.00 0.00 0.00 54 1019.5
20260505153104 25 143 9.7 16.1 0.00 0.00 0.00 56 1019.6
20260505152604 25 170 9.7 16.1 0.00 0.00 0.00 58 1019.6
20260505152105 24 159 8.0 12.9 0.00 0.00 0.00 57 1019.6
20260505151605 25 168 1.6 9.7 0.00 0.00 0.00 57 1019.5
20260505151105 24 339 3.2 14.5 0.00 0.00 0.00 58 1019.6
20260505150604 24 158 6.4 12.9 0.00 0.00 0.00 57 1019.5
20260505150105 24 172 6.4 19.3 0.00 0.00 0.00 58 1019.5
20260505140605 23 292 3.2 11.3 0.00 0.00 0.00 61 1019.4
20260505140105 23 297 3.2 8.0 0.00 0.00 0.00 62 1019.4
20260505130104 21 174 3.2 9.7 0.00 0.00 0.00 72 1019.2
20260505124605 20 321 0.0 9.7 0.00 0.00 0.00 75 1019.5
20260505124105 20 84 1.6 4.8 0.00 0.00 0.00 76 1019.4
20260505123605 20 182 4.8 8.0 0.00 0.00 0.00 78 1019.3
20260505123105 19 134 1.6 4.8 0.00 0.00 0.00 80 1019.3
20260505121605 17 152 0.0 4.8 0.00 0.00 0.00 86 1019.3
20260505120605 17 154 0.0 3.2 0.00 0.00 0.00 89 1019.3
20260505120105 16 298 0.0 3.2 0.00 0.00 0.00 93 1019.2
20260505115606 15 298 0.0 1.6 0.00 0.00 0.00 93 1019.1